Temp
85 84 84 83 82 80 78 76 76 76 76 75 76 76 76 75 75 75 76 76 75 80 81 80 77 81 75 79 75 75 75 75 75 75 74 75 74 74 74 75 75 74 75 75 75 74 75 75 74 75 76 75 75 80 85 88 90 86 83 84 84 81
84 85 85 83 82 81 79 79 80 79 79 77 77 76 77 80 79 80 77 78 79 83 85 83 83 80 81 79 78 75 75 75 75 74 74 74 74 74 74 75 74 74 74 75 74 80 80 76 74 75 75 75 79 85 86 89 85 82 84 82 82 77
85 85 85 84 82 82 81 82 82 81 81 79 80 80 82 83 84 83 83 84 84 84 86 85 83 84 83 78 78 75 74 74 73 74 73 74 74 74 74 74 74 75 74 74 79 83 86 86 83 75 75 79 84 88 90 86 82 81 81 81 79 74
85 85 85 83 82 83 82 82 82 82 82 82 81 82 84 85 85 85 85 84 84 84 84 81 81 81 80 80 78 73 74 74 73 73 74 75 74 75 74 74 74 75 75 80 85 85 90 86 85 84 84 85 89 88 82 76 77 80 80 79 78 73
86 86 85 84 83 83 83 84 83 83 84 84 85 85 84 84 84 84 84 83 84 83 82 81 81 81 77 77 79 79 79 80 79 81 75 81 82 84 78 85 82 79 85 85 86 89 91 91 91 90 89 89 89 88 85 74 79 80 79 77 74 72
85 85 85 85 84 85 83 84 83 84 84 85 86 84 85 84 84 83 84 83 84 83 82 79 79 78 77 74 76 79 79 77 80 79 83 80 84 85 83 86 87 86 85 90 90 90 90 89 87 89 89 90 83 86 88 76 80 79 79 77 74 71
84 85 84 87 85 85 85 84 83 85 84 85 86 85 85 85 84 83 84 84 83 83 83 82 74 75 77 83 81 78 79 82 81 81 83 84 85 86 87 90 90 89 90 89 90 90 90 88 88 89 89 90 87 88 86 84 79 80 78 77 73 70
84 85 84 86 85 84 85 84 84 84 84 85 85 84 84 85 84 83 83 83 83 83 83 82 83 83 84 82 83 83 84 85 86 86 86 85 77 77 79 78 80 81 79 72 74 81 83 87 89 87 88 88 88 86 86 88 84 82 80 78 76 71
85 84 84 85 85 85 84 83 83 84 84 83 84 85 85 84 83 84 83 83 83 82 84 83 83 83 84 82 83 84 85 85 85 85 85 84 80 79 81 75 78 74 78 76 79 82 85 87 86 88 88 87 86 85 85 86 85 84 83 79 76 72
85 84 84 85 84 85 83 83 83 84 84 83 84 84 84 84 84 84 83 83 84 83 83 83 82 84 83 82 83 83 82 83 84 85 81 83 83 78 82 79 79 83 75 83 81 85 83 81 89 87 87 85 85 85 84 85 86 85 83 78 75 73
86 84 85 85 85 84 84 83 84 85 84 84 84 83 84 85 84 84 83 82 84 84 83 83 83 83 83 82 82 82 82 84 84 83 84 84 85 84 85 85 84 87 85 87 87 87 88 87 87 87 86 87 84 84 83 83 83 84 85 79 78 76
84 84 83 85 84 84 83 85 84 85 84 85 83 84 85 85 84 84 83 82 82 83 83 82 82 82 82 82 82 82 83 82 82 84 84 84 84 85 86 86 86 85 84 85 85 86 86 86 86 87 86 85 84 83 83 82 82 81 82 83 82 77
84 83 83 84 84 84 84 84 83 84 84 84 83 84 84 84 84 83 82 82 82 82 82 81 81 81 82 83 82 82 82 82 83 84 83 83 84 84 85 84 83 84 84 84 83 83 87 84 83 83 84 84 83 83 82 81 80 79 80 81 81 81
83 82 82 84 82 84 83 83 83 84 84 83 84 84 84 84 84 83 83 82 82 82 82 82 82 82 82 83 82 82 82 83 84 83 83 83 84 84 83 82 83 84 82 83 82 82 83 84 83 82 80 81 80 79 80 81 79 78 78 78 78 78
82 82 82 82 82 82 83 84 83 84 84 83 83 83 83 84 83 83 84 83 82 81 82 82 83 81 81 83 82 82 82 83 83 83 84 82 83 83 82 82 82 82 82 82 83 82 83 81 79 78 78 78 78 78 78 77 78 78 78 76 76 76
80 81 81 81 82 82 82 82 84 84 83 83 83 83 84 84 83 84 84 79 81 80 80 81 82 81 80 83 84 82 81 82 81 82 81 82 83 82 82 81 80 81 79 82 82 82 82 78 77 76 77 76 76 77 76 76 76 77 78 77 76 75
79 81 80 81 82 82 81 82 83 83 83 82 83 83 84 84 83 82 80 74 73 73 78 82 82 82 81 82 83 82 81 82 82 81 80 81 83 83 82 80 78 79 80 80 82 82 78 76 75 74 75 74 74 75 74 75 75 75 76 75 74 74
80 81 81 80 80 80 81 82 83 82 81 82 82 84 84 83 82 78 78 73 73 74 80 82 82 82 81 83 83 82 81 81 81 79 79 80 80 82 80 78 77 76 78 79 80 79 75 75 74 73 72 72 72 74 74 74 74 75 74 73 73 73
80 80 80 80 79 79 80 80 81 80 80 80 81 83 83 81 82 81 77 76 76 79 81 81 82 82 81 82 82 80 79 80 81 79 78 79 80 81 79 76 77 75 76 80 81 78 75 74 72 71 70 70 71 72 73 74 74 74 73 73 72 73
80 80 79 77 76 78 75 78 76 78 79 80 81 80 81 81 81 79 80 80 81 80 82 81 81 81 81 81 80 80 79 80 80 79 78 78 80 78 77 75 75 75 75 77 79 76 74 73 71 69 68 69 71 71 71 72 72 72 73 73 73 73
79 78 76 72 72 74 72 73 76 77 76 77 79 78 78 79 78 75 80 80 77 80 81 81 81 80 79 79 79 79 78 78 79 80 77 75 76 75 76 75 74 75 75 74 75 76 74 73 70 67 69 68 68 71 70 70 70 71 71 72 73 72
78 75 75 75 74 74 74 77 72 71 71 77 77 77 76 78 78 79 79 79 79 80 80 80 80 80 79 79 77 78 77 77 78 78 76 76 75 74 75 75 75 74 76 75 74 75 74 73 69 68 66 65 66 68 70 69 69 70 70 71 70 70
77 74 72 74 76 76 75 75 73 74 77 77 80 79 79 78 78 78 77 78 79 80 80 80 80 79 78 78 77 77 76 77 78 77 75 74 74 74 74 74 75 74 73 75 74 76 74 74 71 72 72 67 63 62 64 66 68 68 69 70 70 69
76 76 76 76 76 75 75 76 78 77 78 77 76 77 77 78 77 77 76 78 79 78 79 79 80 79 77 77 76 76 77 77 75 76 75 74 73 73 73 74 74 74 74 71 74 72 73 73 71 70 68 69 67 67 60 62 64 67 70 69 69 68
74 74 75 75 76 76 74 74 73 73 74 73 74 75 74 74 75 75 75 75 76 78 78 77 78 78 78 76 76 76 76 74 74 74 75 74 73 73 74 74 74 72 73 73 70 69 70 71 71 72 68 68 69 67 66 64 65 64 69 69 71 72
75 74 73 74 75 74 72 71 68 67 66 68 68 69 70 70 71 73 74 76 77 78 77 76 78 77 78 77 75 75 74 74 73 73 73 73 73 73 73 74 74 73 72 73 71 69 68 70 71 70 70 69 67 65 67 68 68 61 68 69 69 71
74 74 74 74 74 73 71 71 69 68 67 67 66 69 72 72 72 74 74 74 75 75 76 74 74 75 75 74 73 73 73 72 71 71 72 72 71 72 72 72 74 73 73 73 73 69 68 68 69 70 71 69 70 71 70 69 66 66 61 64 68 67
73 73 74 74 73 73 72 71 70 70 70 70 69 68 69 70 72 73 72 72 73 73 74 74 73 74 73 73 72 71 71 70 71 72 73 72 70 71 71 71 71 71 71 72 72 70 69 71 68 66 70 70 70 71 71 70 69 67 68 63 63 69
73 73 74 73 73 73 73 72 71 72 70 71 71 69 67 67 68 70 69 70 72 72 72 73 74 73 72 73 72 71 72 72 72 72 73 71 70 70 70 69 69 69 69 69 70 70 70 69 70 69 69 69 70 71 71 70 70 71 67 66 66 66
73 74 74 74 74 73 72 72 71 71 70 70 71 70 70 67 66 67 67 68 70 70 71 71 71 71 71 71 70 70 71 71 72 72 72 70 70 69 68 68 68 68 68 67 68 68 68 68 69 69 70 70 69 69 68 68 68 68 69 68 65 66
74 75 75 75 74 73 72 73 72 72 71 70 70 70 69 68 69 68 68 68 69 71 72 72 71 70 70 71 71 73 72 71 71 70 70 70 70 70 68 68 68 68 68 67 67 67 67 67 68 67 68 68 67 67 65 64 64 66 65 64 66 66
73 75 75 75 74 73 72 73 73 73 72 70 70 70 69 68 69 67 67 68 70 70 71 71 71 69 69 71 71 71 71 71 70 70 70 70 70 70 70 69 68 68 67 67 67 67 67 66 66 67 66 67 66 67 66 66 66 66 65 65 65 66
72 73 73 74 73 73 72 73 73 73 72 71 71 71 70 69 68 67 66 67 67 69 70 69 70 67 68 69 69 69 70 69 69 69 69 70 70 70 70 69 68 68 67 67 67 67 66 65 66 65 65 67 67 67 66 67 66 66 66 66 65 64
73 73 72 71 72 72 73 74 73 72 71 71 71 71 72 71 70 70 70 70 70 70 69 69 68 67 68 70 70 70 70 69 70 69 69 69 69 70 69 70 68 67 66 66 66 65 65 65 65 66 67 66 65 66 65 66 66 66 65 64 63 61
73 73 72 72 73 73 73 74 73 73 72 72 72 72 72 73 72 71 71 71 71 71 68 69 69 69 71 70 70 69 69 69 68 68 69 68 69 69 69 69 67 66 66 66 66 65 65 65 64 65 65 65 65 65 65 66 66 65 66 64 63 62
74 74 73 73 74 73 73 74 73 72 72 72 73 73 72 73 73 73 73 72 71 70 75 71 70 69 69 69 69 68 69 68 68 68 68 69 69 68 67 66 66 65 65 66 64 64 64 64 63 64 64 65 65 64 65 65 66 64 65 65 65 64
76 76 74 75 74 74 73 72 72 72 72 72 73 72 72 72 73 72 72 72 72 74 75 71 68 69 68 69 69 69 68 68 68 68 68 68 68 68 67 66 66 65 65 66 66 65 65 64 64 64 64 64 64 64 64 64 64 64 64 65 65 65
MSLP
1014.83 1014.91 1015.19 1015.31 1015.59 1015.95 1016.43 1016.71 1016.99 1017.23 1017.43 1017.55 1017.63 1017.75 1017.87 1017.99 1018.03 1018.07 1017.99 1017.99 1017.99 1017.87 1017.95 1018.07 1018.35 1018.27 1018.55 1018.35 1018.39 1018.39 1018.43 1018.51 1018.55 1018.47 1018.43 1018.39 1018.35 1018.39 1018.39 1018.35 1018.35 1018.31 1018.27 1018.23 1018.23 1018.23 1018.19 1018.11 1018.03 1017.95 1017.75 1017.67 1017.47 1017.39 1016.95 1016.51 1016.31 1016.91 1017.31 1017.35 1017.51 1017.99
1014.75 1014.75 1014.83 1015.15 1015.47 1015.79 1016.27 1016.47 1016.67 1017.07 1017.27 1017.51 1017.63 1017.67 1017.79 1017.71 1017.75 1017.79 1017.83 1017.79 1017.63 1017.35 1017.23 1017.59 1017.75 1018.07 1018.07 1018.27 1018.35 1018.43 1018.47 1018.51 1018.55 1018.59 1018.51 1018.47 1018.39 1018.35 1018.31 1018.27 1018.27 1018.23 1018.11 1017.99 1017.95 1017.83 1017.75 1017.83 1017.79 1017.67 1017.63 1017.39 1017.35 1017.03 1016.75 1016.43 1016.99 1017.51 1017.35 1017.63 1017.71 1018.19
1014.59 1014.63 1014.79 1015.03 1015.35 1015.55 1015.95 1016.07 1016.39 1016.71 1017.03 1017.23 1017.31 1017.35 1017.23 1017.23 1017.23 1017.43 1017.47 1017.35 1017.11 1017.11 1016.99 1017.23 1017.59 1017.67 1017.79 1018.07 1018.19 1018.39 1018.39 1018.43 1018.51 1018.51 1018.51 1018.43 1018.39 1018.27 1018.23 1018.19 1018.11 1018.03 1017.91 1017.71 1017.67 1017.39 1017.03 1017.11 1017.39 1017.47 1017.35 1017.27 1017.07 1016.55 1016.31 1016.99 1017.47 1017.63 1017.75 1017.91 1018.07 1018.39
1014.59 1014.59 1014.75 1015.03 1015.23 1015.39 1015.71 1015.87 1016.19 1016.47 1016.63 1016.83 1017.03 1016.95 1016.91 1016.83 1016.95 1016.95 1016.99 1017.07 1017.11 1017.07 1017.07 1017.43 1017.55 1017.71 1017.87 1018.11 1018.27 1018.39 1018.27 1018.31 1018.35 1018.35 1018.31 1018.27 1018.23 1018.11 1018.07 1018.03 1017.91 1017.75 1017.75 1017.63 1017.19 1016.99 1016.31 1016.79 1016.87 1016.99 1017.03 1016.79 1016.55 1016.47 1017.43 1018.19 1017.83 1017.87 1017.99 1018.15 1018.43 1018.63
1014.43 1014.43 1014.79 1014.95 1015.11 1015.31 1015.51 1015.71 1015.95 1016.23 1016.31 1016.51 1016.39 1016.63 1016.83 1016.83 1016.91 1016.95 1017.03 1017.15 1017.07 1017.19 1017.35 1017.51 1017.55 1017.71 1017.91 1018.07 1018.15 1018.07 1017.99 1017.99 1017.99 1017.91 1017.99 1017.83 1017.63 1017.59 1017.71 1017.43 1017.47 1017.51 1017.19 1017.03 1016.83 1016.27 1015.95 1016.03 1016.11 1016.23 1016.39 1016.43 1016.31 1016.43 1016.95 1018.11 1017.95 1018.03 1018.19 1018.55 1018.95 1018.95
1014.39 1014.43 1014.67 1014.79 1015.03 1015.11 1015.43 1015.67 1015.95 1016.03 1016.19 1016.23 1016.11 1016.63 1016.79 1016.83 1016.95 1017.07 1017.03 1017.07 1016.99 1017.19 1017.39 1017.83 1017.79 1018.15 1018.07 1017.99 1017.91 1017.87 1017.99 1017.99 1017.91 1017.83 1017.31 1017.67 1017.23 1017.07 1017.27 1016.87 1016.75 1016.87 1016.71 1016.11 1016.11 1016.11 1016.11 1016.27 1016.79 1016.59 1016.39 1016.19 1016.99 1016.71 1016.79 1017.79 1017.95 1018.11 1018.19 1018.75 1019.19 1019.23
1014.47 1014.47 1014.71 1014.51 1014.79 1015.07 1015.35 1015.51 1015.83 1015.87 1016.19 1016.23 1016.15 1016.55 1016.83 1016.75 1016.83 1016.99 1016.95 1016.91 1017.15 1017.23 1017.23 1017.35 1018.23 1018.15 1018.07 1017.27 1017.39 1017.71 1017.71 1017.35 1017.47 1017.43 1017.07 1016.99 1016.91 1016.79 1016.59 1016.27 1016.35 1016.39 1016.23 1016.35 1016.35 1016.27 1016.15 1016.43 1016.55 1016.59 1016.43 1016.39 1016.75 1016.67 1016.91 1017.31 1018.07 1017.99 1018.43 1018.87 1019.35 1019.43
1014.43 1014.51 1014.71 1014.55 1014.91 1015.19 1015.35 1015.55 1015.75 1015.99 1016.07 1016.15 1016.35 1016.63 1016.83 1016.75 1016.75 1016.95 1016.95 1017.03 1017.11 1017.11 1017.07 1017.19 1017.11 1017.23 1017.15 1017.23 1017.31 1017.23 1017.15 1017.07 1016.95 1016.91 1016.83 1016.67 1017.51 1017.59 1017.15 1017.35 1017.23 1017.27 1017.67 1018.35 1018.19 1017.07 1016.99 1016.55 1016.55 1016.75 1016.83 1016.87 1016.91 1017.03 1017.11 1017.03 1017.51 1017.83 1018.27 1018.79 1019.19 1019.51
1014.39 1014.59 1014.59 1014.55 1014.91 1015.07 1015.31 1015.59 1015.83 1015.95 1016.07 1016.27 1016.43 1016.51 1016.63 1016.71 1016.91 1016.87 1016.95 1017.03 1017.11 1017.19 1016.87 1016.91 1017.11 1017.15 1017.07 1017.23 1017.19 1017.15 1017.07 1017.11 1016.99 1016.91 1016.95 1016.95 1017.35 1017.35 1017.35 1017.55 1017.31 1017.47 1017.55 1017.63 1017.27 1017.23 1016.79 1016.79 1016.71 1016.67 1016.87 1017.23 1017.39 1017.39 1017.43 1017.23 1017.35 1017.79 1018.11 1018.75 1019.23 1019.63
1014.35 1014.51 1014.55 1014.63 1014.87 1015.07 1015.39 1015.71 1015.87 1015.91 1016.03 1016.27 1016.39 1016.51 1016.55 1016.71 1016.75 1016.79 1016.99 1016.95 1016.91 1017.03 1016.95 1016.99 1017.15 1016.99 1017.19 1017.35 1017.23 1017.15 1017.27 1017.27 1017.23 1017.15 1017.23 1017.15 1017.11 1017.59 1017.39 1017.83 1017.39 1017.27 1018.15 1017.11 1017.23 1016.91 1016.99 1017.31 1016.75 1017.03 1017.19 1017.43 1017.55 1017.51 1017.51 1017.55 1017.47 1017.63 1017.99 1018.79 1019.27 1019.55
1014.11 1014.43 1014.47 1014.71 1014.79 1015.07 1015.27 1015.59 1015.67 1015.71 1015.99 1016.19 1016.31 1016.55 1016.47 1016.43 1016.67 1016.67 1016.83 1016.91 1016.87 1016.87 1016.99 1017.03 1017.07 1017.11 1017.15 1017.35 1017.35 1017.39 1017.35 1017.23 1017.35 1017.43 1017.19 1017.27 1017.15 1017.23 1017.15 1017.07 1017.19 1016.83 1016.91 1016.75 1016.79 1016.75 1016.79 1016.95 1017.03 1017.23 1017.39 1017.47 1017.71 1017.71 1017.87 1017.91 1017.99 1017.91 1017.83 1018.55 1018.99 1019.27
1014.15 1014.43 1014.63 1014.71 1014.83 1015.15 1015.31 1015.39 1015.59 1015.67 1015.91 1015.95 1016.23 1016.35 1016.23 1016.19 1016.55 1016.71 1016.75 1016.91 1016.95 1016.95 1017.03 1017.15 1017.15 1017.23 1017.23 1017.31 1017.39 1017.43 1017.35 1017.43 1017.55 1017.35 1017.27 1017.31 1017.35 1017.19 1017.07 1017.15 1017.15 1017.19 1017.27 1017.15 1017.23 1017.15 1017.11 1017.31 1017.39 1017.43 1017.63 1017.91 1017.87 1017.99 1018.15 1018.27 1018.43 1018.51 1018.43 1018.27 1018.51 1019.03
1014.19 1014.55 1014.67 1014.75 1014.91 1015.03 1015.15 1015.43 1015.63 1015.75 1015.79 1015.95 1016.11 1016.07 1016.23 1016.35 1016.39 1016.63 1016.71 1016.79 1016.87 1016.99 1017.07 1017.19 1017.31 1017.27 1017.35 1017.27 1017.39 1017.43 1017.47 1017.51 1017.43 1017.39 1017.43 1017.55 1017.51 1017.35 1017.31 1017.51 1017.55 1017.43 1017.51 1017.43 1017.55 1017.59 1017.31 1017.55 1017.87 1017.99 1017.95 1018.03 1018.11 1018.35 1018.47 1018.59 1018.83 1018.91 1018.95 1018.87 1018.83 1018.71
1014.31 1014.63 1014.75 1014.71 1014.99 1015.11 1015.27 1015.43 1015.55 1015.59 1015.67 1015.91 1015.91 1016.07 1016.19 1016.23 1016.39 1016.55 1016.59 1016.75 1016.87 1016.99 1017.07 1017.07 1017.19 1017.27 1017.31 1017.27 1017.43 1017.47 1017.55 1017.59 1017.47 1017.59 1017.59 1017.55 1017.59 1017.63 1017.67 1017.83 1017.67 1017.55 1017.83 1017.75 1017.83 1017.83 1017.83 1017.83 1018.07 1018.31 1018.71 1018.71 1018.79 1018.91 1018.83 1018.99 1019.11 1019.27 1019.31 1019.39 1019.39 1019.43
1014.43 1014.59 1014.71 1014.87 1015.07 1015.19 1015.27 1015.35 1015.47 1015.47 1015.59 1015.87 1015.99 1016.15 1016.19 1016.27 1016.43 1016.47 1016.35 1016.71 1016.91 1017.07 1017.07 1017.11 1017.07 1017.31 1017.43 1017.27 1017.47 1017.63 1017.67 1017.63 1017.59 1017.51 1017.55 1017.79 1017.79 1017.67 1017.95 1017.99 1017.87 1017.91 1017.99 1017.95 1017.91 1017.95 1017.91 1018.31 1018.75 1019.11 1019.19 1019.15 1019.27 1019.23 1019.35 1019.47 1019.43 1019.43 1019.59 1019.75 1019.75 1019.87
1014.47 1014.63 1014.71 1014.87 1015.03 1015.15 1015.31 1015.35 1015.31 1015.35 1015.59 1015.87 1015.99 1016.11 1016.19 1016.19 1016.31 1016.35 1016.23 1016.99 1017.07 1017.19 1017.19 1017.15 1017.15 1017.31 1017.55 1017.23 1017.35 1017.75 1017.83 1017.79 1017.87 1017.83 1017.95 1017.87 1017.71 1017.99 1017.99 1018.15 1018.23 1018.15 1018.35 1018.07 1017.95 1018.03 1018.07 1018.87 1019.35 1019.59 1019.59 1019.63 1019.63 1019.59 1019.71 1019.75 1019.83 1019.83 1019.75 1019.79 1020.03 1020.11
1014.51 1014.51 1014.71 1014.87 1014.99 1015.07 1015.31 1015.39 1015.39 1015.47 1015.67 1015.95 1015.99 1016.11 1016.07 1016.07 1016.35 1016.39 1016.67 1017.35 1017.91 1018.15 1017.59 1017.11 1017.11 1017.19 1017.31 1017.31 1017.43 1017.63 1017.87 1017.87 1017.87 1018.07 1018.19 1018.03 1017.71 1017.79 1017.83 1018.31 1018.55 1018.51 1018.35 1018.35 1018.15 1018.35 1018.95 1019.55 1019.83 1019.99 1019.99 1020.07 1020.03 1019.99 1020.03 1020.03 1020.07 1020.11 1020.15 1020.27 1020.31 1020.35
1014.23 1014.35 1014.59 1014.83 1015.03 1015.27 1015.27 1015.27 1015.39 1015.59 1015.83 1015.99 1016.07 1015.99 1015.99 1016.15 1016.43 1016.79 1017.19 1017.71 1018.15 1018.11 1017.35 1017.19 1017.15 1017.23 1017.39 1017.27 1017.43 1017.71 1017.95 1017.99 1017.99 1018.31 1018.35 1018.27 1018.19 1018.07 1018.31 1018.51 1018.79 1018.87 1018.59 1018.43 1018.43 1018.79 1019.59 1019.79 1020.03 1020.31 1020.47 1020.51 1020.43 1020.35 1020.35 1020.35 1020.31 1020.27 1020.43 1020.59 1020.63 1020.63
1014.23 1014.39 1014.55 1014.83 1015.15 1015.31 1015.39 1015.55 1015.55 1015.83 1016.07 1016.15 1016.15 1016.07 1016.11 1016.39 1016.39 1016.59 1017.15 1017.55 1017.75 1017.43 1017.27 1017.19 1017.23 1017.35 1017.51 1017.51 1017.67 1017.91 1018.19 1018.19 1018.15 1018.39 1018.47 1018.23 1018.19 1018.23 1018.59 1018.99 1018.95 1019.15 1018.91 1018.43 1018.31 1018.95 1019.59 1020.03 1020.39 1020.67 1020.87 1020.91 1020.79 1020.71 1020.63 1020.59 1020.47 1020.59 1020.71 1020.79 1020.79 1020.67
1014.15 1014.35 1014.71 1015.31 1015.71 1015.63 1015.95 1015.99 1016.27 1016.11 1016.27 1016.23 1016.19 1016.35 1016.35 1016.55 1016.43 1016.91 1016.95 1016.99 1017.03 1017.19 1017.19 1017.31 1017.39 1017.51 1017.63 1017.75 1017.95 1018.11 1018.31 1018.23 1018.27 1018.31 1018.59 1018.63 1018.15 1018.39 1018.83 1019.27 1019.23 1019.23 1019.27 1018.95 1018.67 1019.31 1019.79 1020.23 1020.67 1020.95 1021.15 1021.11 1021.03 1020.99 1021.03 1020.91 1020.91 1020.87 1020.79 1020.87 1020.83 1020.71
1014.07 1014.55 1015.07 1015.83 1015.99 1015.99 1016.51 1016.71 1016.31 1016.39 1016.59 1016.51 1016.47 1016.55 1016.79 1016.67 1016.99 1017.31 1016.99 1016.99 1017.47 1017.31 1017.31 1017.43 1017.55 1017.71 1017.91 1017.99 1018.11 1018.27 1018.35 1018.47 1018.23 1018.27 1018.71 1018.99 1018.87 1019.07 1019.15 1019.27 1019.39 1019.23 1019.35 1019.43 1019.51 1019.47 1019.91 1020.15 1020.71 1021.15 1021.15 1021.27 1021.35 1021.19 1021.23 1021.23 1021.27 1021.19 1021.11 1020.99 1020.95 1021.07
1014.23 1014.87 1015.07 1015.27 1015.47 1015.79 1016.03 1016.07 1016.59 1016.95 1017.03 1016.67 1016.75 1016.91 1017.11 1017.03 1017.11 1017.23 1017.19 1017.23 1017.35 1017.43 1017.59 1017.75 1017.75 1017.83 1017.99 1018.15 1018.39 1018.43 1018.63 1018.71 1018.59 1018.63 1018.91 1018.95 1019.19 1019.35 1019.31 1019.31 1019.31 1019.55 1019.27 1019.43 1019.63 1019.63 1019.87 1019.91 1020.55 1020.67 1021.23 1021.51 1021.55 1021.47 1021.35 1021.39 1021.43 1021.43 1021.31 1021.23 1021.31 1021.35
1014.15 1014.99 1015.31 1015.23 1015.27 1015.47 1015.67 1016.03 1016.51 1016.63 1016.43 1016.67 1016.39 1016.47 1016.79 1017.03 1017.15 1017.39 1017.51 1017.51 1017.55 1017.59 1017.67 1017.79 1017.87 1018.07 1018.31 1018.39 1018.51 1018.63 1018.79 1018.79 1018.75 1018.87 1019.19 1019.35 1019.35 1019.43 1019.39 1019.39 1019.31 1019.43 1019.75 1019.51 1019.59 1019.47 1019.67 1019.71 1020.03 1019.91 1019.83 1020.71 1021.59 1021.95 1021.91 1021.71 1021.67 1021.67 1021.55 1021.47 1021.39 1021.51
1014.03 1014.35 1014.67 1014.75 1014.99 1015.35 1015.63 1015.75 1015.79 1016.07 1016.31 1016.51 1016.91 1016.91 1017.03 1017.11 1017.31 1017.51 1017.75 1017.67 1017.75 1017.87 1017.95 1017.95 1018.03 1018.23 1018.47 1018.63 1018.75 1018.83 1018.83 1018.91 1019.19 1019.15 1019.23 1019.39 1019.47 1019.55 1019.55 1019.51 1019.47 1019.47 1019.47 1019.95 1019.79 1020.11 1019.95 1019.83 1020.15 1020.23 1020.39 1019.99 1020.19 1020.47 1021.87 1021.79 1021.79 1021.67 1021.39 1021.51 1021.55 1021.63
1013.87 1014.19 1014.39 1014.79 1014.91 1015.15 1015.59 1015.91 1016.15 1016.51 1016.63 1016.99 1017.11 1017.31 1017.51 1017.75 1017.71 1017.75 1017.91 1018.07 1018.19 1018.11 1018.23 1018.43 1018.43 1018.43 1018.47 1018.83 1018.83 1018.87 1018.95 1019.27 1019.35 1019.27 1019.19 1019.39 1019.51 1019.59 1019.51 1019.55 1019.59 1019.71 1019.67 1019.67 1020.23 1020.47 1020.27 1020.15 1020.19 1020.07 1020.35 1020.03 1019.75 1019.91 1020.11 1021.11 1021.31 1021.71 1021.23 1021.31 1021.23 1021.23
1013.87 1014.15 1014.63 1014.91 1014.87 1015.23 1015.63 1015.95 1016.47 1016.91 1017.39 1017.51 1017.87 1017.91 1018.03 1018.19 1018.19 1018.19 1018.15 1018.11 1018.23 1018.35 1018.59 1018.79 1018.67 1018.75 1018.67 1018.79 1019.15 1019.19 1019.31 1019.35 1019.47 1019.51 1019.51 1019.59 1019.63 1019.71 1019.67 1019.63 1019.67 1019.75 1019.95 1019.83 1020.07 1020.39 1020.59 1020.35 1020.23 1020.35 1020.19 1020.31 1020.43 1020.63 1020.43 1020.39 1020.51 1021.75 1021.39 1021.23 1021.39 1021.35
1013.95 1014.19 1014.47 1014.83 1014.99 1015.27 1015.67 1015.95 1016.39 1016.59 1016.83 1017.35 1017.67 1017.71 1017.59 1017.79 1017.95 1018.03 1018.11 1018.39 1018.59 1018.67 1018.79 1018.99 1019.03 1018.99 1019.11 1019.27 1019.47 1019.55 1019.59 1019.59 1019.67 1019.71 1019.67 1019.71 1019.83 1019.79 1019.83 1019.87 1019.75 1019.83 1019.95 1019.95 1019.95 1020.43 1020.59 1020.71 1020.51 1020.43 1020.35 1020.39 1020.11 1020.03 1019.87 1020.15 1020.55 1020.63 1021.67 1021.59 1021.35 1021.47
1013.87 1014.23 1014.35 1014.67 1015.03 1015.19 1015.63 1015.99 1016.43 1016.75 1016.79 1017.19 1017.35 1017.71 1017.87 1018.03 1018.07 1018.19 1018.47 1018.67 1018.67 1018.87 1018.95 1019.03 1019.19 1019.23 1019.39 1019.51 1019.67 1019.83 1019.79 1019.75 1019.75 1019.67 1019.67 1019.83 1019.95 1019.95 1020.03 1020.19 1020.23 1020.23 1020.19 1020.11 1020.03 1020.27 1020.43 1020.35 1020.67 1020.99 1020.55 1020.39 1020.23 1020.11 1019.99 1020.15 1020.23 1020.35 1020.11 1020.95 1021.47 1021.19
1014.03 1014.23 1014.39 1014.59 1014.95 1015.23 1015.43 1015.75 1016.15 1016.31 1016.75 1016.95 1017.11 1017.63 1018.07 1018.15 1018.31 1018.43 1018.71 1018.79 1018.75 1018.99 1019.15 1019.19 1019.27 1019.47 1019.55 1019.59 1019.71 1019.79 1019.75 1019.79 1019.75 1019.75 1019.75 1019.99 1020.11 1020.19 1020.31 1020.43 1020.51 1020.55 1020.63 1020.59 1020.51 1020.47 1020.47 1020.63 1020.51 1020.71 1020.59 1020.55 1020.35 1020.31 1020.27 1020.39 1020.31 1020.15 1020.39 1020.23 1020.51 1020.83
1013.87 1013.99 1014.11 1014.39 1014.63 1014.99 1015.27 1015.51 1015.87 1016.11 1016.55 1016.87 1017.03 1017.39 1017.79 1018.11 1018.11 1018.55 1018.99 1018.99 1018.99 1019.07 1019.19 1019.47 1019.59 1019.67 1019.75 1019.79 1019.79 1019.75 1019.87 1019.95 1019.87 1019.83 1019.95 1020.15 1020.31 1020.47 1020.59 1020.71 1020.79 1020.83 1020.87 1020.95 1020.91 1020.87 1020.91 1020.87 1020.87 1020.83 1020.59 1020.59 1020.67 1020.63 1020.71 1020.75 1020.75 1020.59 1020.39 1020.31 1020.63 1020.71
1013.55 1013.63 1013.87 1014.11 1014.39 1014.83 1015.07 1015.15 1015.47 1015.79 1016.23 1016.63 1016.91 1017.19 1017.59 1017.95 1018.03 1018.43 1018.87 1018.95 1018.91 1018.87 1019.03 1019.31 1019.67 1019.87 1019.87 1019.79 1019.71 1019.71 1019.95 1020.07 1020.11 1020.19 1020.27 1020.35 1020.43 1020.59 1020.79 1020.91 1020.99 1021.03 1021.07 1021.15 1021.19 1021.23 1021.19 1021.15 1021.15 1021.15 1021.03 1021.03 1021.07 1021.15 1021.31 1021.43 1021.39 1021.15 1021.07 1021.11 1020.79 1020.63
1013.43 1013.43 1013.67 1013.91 1014.23 1014.59 1014.83 1014.95 1015.11 1015.51 1015.99 1016.47 1016.75 1017.03 1017.39 1017.71 1017.87 1018.27 1018.43 1018.59 1018.55 1018.83 1019.07 1019.39 1019.51 1019.83 1019.79 1019.75 1019.79 1019.99 1020.07 1020.15 1020.27 1020.35 1020.51 1020.55 1020.63 1020.71 1020.83 1020.99 1021.11 1021.23 1021.35 1021.35 1021.35 1021.39 1021.39 1021.47 1021.43 1021.47 1021.51 1021.51 1021.55 1021.51 1021.51 1021.51 1021.55 1021.51 1021.47 1021.35 1021.15 1020.75
1013.35 1013.39 1013.67 1013.95 1014.27 1014.43 1014.71 1014.87 1015.11 1015.47 1015.91 1016.31 1016.63 1016.87 1017.15 1017.51 1017.79 1018.07 1018.31 1018.43 1018.67 1018.95 1019.19 1019.47 1019.63 1019.99 1020.03 1019.95 1019.99 1020.15 1020.23 1020.39 1020.51 1020.55 1020.67 1020.71 1020.83 1020.91 1021.03 1021.19 1021.35 1021.47 1021.55 1021.55 1021.63 1021.59 1021.71 1021.79 1021.67 1021.79 1021.87 1021.75 1021.71 1021.71 1021.75 1021.75 1021.71 1021.71 1021.59 1021.39 1021.39 1021.31
1013.03 1013.19 1013.47 1013.79 1013.95 1014.27 1014.43 1014.59 1014.99 1015.39 1015.87 1016.27 1016.51 1016.63 1016.87 1017.19 1017.51 1017.63 1017.79 1018.03 1018.35 1018.71 1019.11 1019.35 1019.71 1019.87 1019.91 1019.91 1019.95 1020.11 1020.31 1020.43 1020.59 1020.75 1020.83 1020.95 1021.07 1021.11 1021.23 1021.35 1021.63 1021.75 1021.83 1021.87 1021.91 1021.99 1022.07 1022.07 1022.03 1021.95 1021.87 1021.95 1021.99 1021.99 1022.03 1021.95 1021.95 1021.83 1021.91 1021.91 1021.91 1021.91
1012.63 1012.99 1013.35 1013.59 1013.75 1014.03 1014.27 1014.51 1014.83 1015.23 1015.59 1015.91 1016.11 1016.35 1016.63 1016.71 1017.03 1017.27 1017.47 1017.83 1018.11 1018.59 1019.11 1019.23 1019.43 1019.55 1019.63 1019.79 1020.03 1020.27 1020.51 1020.63 1020.79 1020.91 1021.03 1021.11 1021.19 1021.35 1021.43 1021.55 1021.83 1021.95 1021.99 1022.03 1022.11 1022.19 1022.27 1022.27 1022.27 1022.23 1022.19 1022.15 1022.15 1022.15 1022.19 1022.19 1022.19 1022.15 1022.03 1022.15 1022.19 1022.11
1012.11 1012.47 1013.03 1013.35 1013.55 1013.87 1014.11 1014.35 1014.75 1015.15 1015.51 1015.67 1015.79 1016.11 1016.47 1016.59 1016.75 1016.87 1017.23 1017.67 1018.11 1018.39 1017.71 1018.79 1019.27 1019.59 1019.75 1019.91 1020.15 1020.39 1020.55 1020.75 1020.91 1021.07 1021.19 1021.27 1021.35 1021.51 1021.71 1021.91 1022.03 1022.15 1022.23 1022.27 1022.39 1022.43 1022.47 1022.47 1022.47 1022.43 1022.39 1022.31 1022.31 1022.43 1022.47 1022.47 1022.43 1022.51 1022.39 1022.27 1022.23 1022.19
1011.79 1012.11 1012.67 1012.95 1013.23 1013.59 1013.91 1014.35 1014.71 1015.03 1015.39 1015.67 1015.87 1016.11 1016.27 1016.47 1016.75 1017.11 1017.43 1017.71 1018.19 1017.91 1018.03 1018.79 1019.43 1019.67 1019.87 1019.95 1020.15 1020.31 1020.55 1020.79 1020.99 1021.11 1021.23 1021.31 1021.47 1021.67 1021.83 1021.99 1022.15 1022.27 1022.35 1022.35 1022.39 1022.47 1022.51 1022.55 1022.55 1022.55 1022.55 1022.47 1022.47 1022.63 1022.75 1022.75 1022.71 1022.67 1022.63 1022.51 1022.35 1022.31
Wind_Speed
11 13 11 11 11 12 13 15 13 14 13 13 12 12 11 11 10 10 10 10 11 8 6 7 9 6 8 5 6 6 5 5 3 3 4 6 6 6 6 6 4 7 6 8 8 9 9 10 10 10 10 10 11 7 6 5 4 8 8 7 6 9
10 12 12 10 9 10 11 13 13 12 10 11 11 12 10 8 9 7 10 9 8 6 5 8 5 8 5 8 7 5 5 3 3 3 4 4 6 6 6 7 7 7 10 9 12 8 9 11 12 12 11 12 8 6 6 3 9 6 6 6 8 10
12 11 12 11 9 10 13 10 12 11 9 11 11 11 9 8 7 8 8 7 5 5 5 5 4 4 5 6 8 7 5 5 4 5 6 6 6 7 8 8 10 10 11 14 9 8 8 8 7 12 11 7 6 5 3 5 8 3 7 8 8 14
11 12 11 10 10 10 10 10 10 10 9 9 9 9 7 7 7 7 6 4 4 4 4 4 5 7 9 4 6 7 8 8 9 7 9 7 8 9 10 11 11 13 10 8 8 9 9 8 7 7 6 7 3 5 5 10 1 5 7 10 11 18
11 11 11 10 9 9 9 9 9 9 9 8 8 6 6 6 5 5 4 4 5 4 4 4 5 4 1 4 4 4 6 5 5 7 10 6 7 7 9 8 8 10 8 8 11 5 3 1 1 1 1 3 2 1 6 5 7 5 8 10 12 17
10 11 11 9 9 9 10 9 8 8 8 7 7 7 5 5 5 5 5 5 5 4 4 3 2 4 3 4 4 2 2 4 2 7 8 7 7 7 7 9 8 9 10 6 2 1 1 3 3 1 2 0 5 2 3 10 5 7 9 9 12 18
10 10 12 9 8 8 8 8 8 7 7 6 6 6 6 5 5 6 5 4 3 3 3 5 7 6 7 5 5 7 6 6 8 4 4 6 1 1 3 1 1 1 1 1 0 2 3 4 2 3 2 4 3 4 3 7 7 7 9 9 11 18
11 11 10 9 8 9 7 7 7 7 7 6 6 6 5 4 5 5 5 4 3 3 4 3 3 2 2 3 3 2 2 2 1 1 0 3 3 3 6 8 8 9 8 9 6 10 4 1 2 1 2 2 4 5 4 4 6 7 8 8 9 15
11 11 10 9 9 8 7 7 7 7 6 7 5 6 6 5 4 4 4 3 3 3 3 2 2 2 1 2 2 2 1 2 0 2 1 3 2 3 1 3 2 1 6 3 3 2 3 3 2 3 3 5 4 4 4 4 5 5 7 8 7 12
12 11 10 9 8 8 8 8 8 7 6 7 5 5 5 5 5 5 4 3 3 2 2 2 1 1 2 2 2 3 3 2 2 2 0 1 2 3 2 3 3 3 6 6 6 3 2 3 4 3 3 4 3 4 5 5 5 4 7 8 8 9
12 11 9 10 8 8 8 8 7 7 7 6 7 6 6 6 5 5 4 4 4 3 2 1 2 2 2 2 2 2 3 2 3 2 1 1 1 1 1 1 1 2 1 2 2 2 2 2 3 4 3 5 5 5 5 5 6 6 5 9 7 7
11 11 9 10 8 9 8 8 8 7 7 7 7 7 6 4 5 5 5 5 3 3 2 2 1 2 2 3 3 3 3 3 3 3 1 1 1 1 1 3 1 1 2 3 2 2 2 2 3 4 5 5 5 5 5 5 6 6 6 5 5 7
11 11 10 10 9 8 8 7 7 7 7 7 7 6 5 5 5 5 4 4 4 3 2 2 2 3 3 3 4 3 4 3 3 3 3 2 1 1 1 1 1 1 1 2 1 2 2 3 3 5 5 5 5 6 5 5 5 5 5 5 5 5
10 11 10 9 8 7 7 7 7 6 7 7 7 6 6 5 5 5 5 4 4 4 3 2 3 3 3 3 3 3 4 3 3 3 2 1 1 1 1 2 1 1 2 1 1 2 1 3 5 4 5 5 6 6 5 6 5 5 5 5 5 6
9 11 10 9 9 8 8 8 7 7 7 7 6 5 5 5 5 4 5 5 3 3 2 3 2 3 2 3 4 4 3 3 3 1 2 2 1 1 3 2 2 2 1 1 2 2 3 5 6 5 6 5 5 5 5 5 5 5 5 5 5 5
11 11 10 9 9 8 9 8 7 7 7 7 6 6 5 5 5 4 4 4 3 2 3 3 3 4 3 3 4 4 3 3 3 2 2 0 1 1 2 2 3 3 2 0 1 3 3 5 5 5 5 5 4 5 5 5 5 5 6 5 5 5
13 13 11 11 10 9 9 9 8 7 7 7 6 5 5 4 4 4 4 4 5 4 4 3 4 4 2 3 3 4 4 2 2 2 1 2 1 2 2 1 2 3 3 1 0 4 5 5 5 5 5 6 5 5 5 4 4 4 5 6 5 5
12 12 11 11 10 9 8 8 7 7 7 7 6 5 4 4 4 4 2 4 4 7 3 4 3 4 3 3 4 3 3 2 2 1 1 2 1 1 3 3 2 2 2 2 3 4 6 5 5 5 6 6 5 5 4 4 4 5 5 5 5 5
11 12 12 10 9 8 8 7 6 7 7 7 6 4 4 4 3 5 3 8 8 6 4 4 4 3 3 3 3 4 3 2 1 1 1 4 2 2 3 2 1 2 1 2 3 5 6 6 6 6 6 6 6 6 5 5 5 5 4 4 4 3
11 11 9 7 6 7 7 7 8 8 7 6 5 5 4 4 4 3 3 3 4 3 4 3 4 3 2 3 3 3 3 1 1 2 1 3 4 6 3 2 3 3 3 3 5 7 7 7 7 7 7 7 6 6 7 5 5 4 4 4 4 4
12 10 8 8 8 7 4 6 7 7 6 5 5 4 4 3 6 3 3 4 4 3 4 4 4 3 3 3 3 3 2 2 3 1 0 2 2 3 2 2 2 2 3 4 6 6 7 7 7 7 5 6 6 6 6 6 5 4 4 4 4 4
11 10 8 7 7 8 8 7 5 4 2 5 5 5 5 3 4 4 3 3 3 3 5 4 4 3 3 3 2 2 2 1 2 2 2 2 2 2 2 2 2 3 2 3 5 7 6 7 6 6 6 5 5 4 5 5 5 4 4 4 3 3
11 10 8 9 9 9 8 7 9 7 6 5 4 3 5 5 5 5 4 4 4 4 4 3 3 4 3 3 2 2 1 1 1 1 3 3 3 2 2 2 0 2 4 2 3 2 6 5 3 6 4 7 6 6 4 5 5 4 4 3 3 3
10 10 11 11 10 10 8 8 8 8 5 3 5 6 5 5 5 5 5 4 4 4 3 3 4 3 3 3 2 1 0 1 1 0 1 2 3 3 2 2 2 1 1 5 4 3 1 2 1 5 6 6 7 7 7 5 5 3 4 4 3 3
11 11 10 9 10 10 9 9 8 8 7 7 6 5 5 5 5 5 5 5 4 3 3 3 2 2 3 1 1 1 1 2 1 2 1 3 3 2 2 3 2 3 2 1 3 2 2 2 3 4 5 4 4 6 4 8 6 4 4 4 3 4
11 10 10 11 11 11 11 11 10 9 9 7 7 7 7 7 7 6 6 6 5 4 4 3 2 4 4 2 2 2 2 3 3 3 3 3 3 3 3 4 3 3 4 4 4 4 4 3 3 5 5 3 3 4 2 7 6 4 3 4 4 3
11 12 13 12 12 10 11 9 10 9 8 8 8 5 5 6 6 5 5 6 5 5 5 4 4 4 4 4 3 3 3 4 4 3 3 3 3 3 4 4 3 4 3 3 3 5 5 5 4 5 4 4 5 3 6 1 2 6 5 4 4 4
10 11 12 12 13 12 11 10 10 8 8 9 8 8 8 7 6 6 6 5 5 5 4 4 4 4 4 4 4 3 3 4 3 3 4 4 4 4 4 4 5 4 4 3 2 3 4 3 4 3 3 3 4 5 6 5 5 4 4 5 5 4
11 11 13 15 13 12 10 10 10 8 8 8 10 9 6 6 6 5 6 4 5 6 5 4 4 4 4 4 4 4 4 4 4 4 5 5 5 6 6 5 5 5 5 4 4 3 3 4 3 3 3 4 4 4 4 5 4 3 5 2 4 2
15 13 14 16 14 14 13 12 10 9 11 11 10 9 9 7 8 6 5 6 5 5 5 4 3 3 3 4 4 4 4 4 4 5 5 6 6 7 6 6 6 6 5 6 5 5 5 4 4 4 3 1 2 3 3 4 5 4 3 5 3 2
16 14 16 16 15 14 13 12 11 12 13 12 12 12 12 10 9 9 8 7 6 4 4 4 4 4 4 5 5 5 5 5 6 5 5 5 5 6 6 6 7 7 7 7 6 6 6 6 5 5 5 5 5 5 4 4 4 4 4 3 2 1
15 15 15 15 15 14 12 12 11 12 13 12 14 12 13 14 12 10 9 7 6 5 5 5 5 4 5 4 5 5 6 6 5 5 6 5 6 6 6 6 5 5 6 6 6 6 6 6 6 5 6 5 5 5 5 4 4 4 4 3 4 3
17 16 15 14 15 15 13 12 12 13 12 11 12 12 13 11 9 8 8 7 7 7 6 6 6 5 4 5 5 5 5 5 5 5 6 6 6 6 6 5 5 6 5 5 5 5 5 6 5 5 5 5 5 5 5 4 4 4 4 3 4 4
18 16 13 13 16 15 14 13 13 12 12 12 12 12 11 10 8 8 8 8 8 7 6 6 7 7 6 6 6 5 6 6 6 6 6 7 6 6 6 6 6 6 7 6 6 7 6 6 5 5 5 5 5 5 5 4 4 4 5 5 5 5
19 17 15 15 15 15 13 14 13 12 11 11 12 10 10 10 10 9 9 9 8 8 8 8 7 6 7 7 7 7 7 7 7 7 7 6 6 6 6 6 6 6 6 5 6 6 5 6 6 7 6 5 5 5 5 5 5 5 5 5 5 5
18 19 18 18 16 14 13 12 13 12 12 12 10 11 10 9 9 8 9 9 9 9 8 9 7 7 7 8 8 8 7 7 7 7 7 7 7 6 6 6 6 6 6 5 6 7 6 7 7 7 6 6 5 6 5 5 5 4 5 4 4 4
18 17 18 18 16 15 13 13 13 13 13 12 12 12 11 11 9 8 9 9 8 7 6 8 8 7 8 8 8 8 8 8 7 7 7 7 7 7 7 6 6 6 6 6 5 6 5 6 6 6 5 6 5 5 5 4 4 4 4 4 4 4
Wind_Direction
173 161 172 159 153 152 143 140 139 138 136 134 130 130 131 136 140 141 148 162 167 169 154 147 179 131 165 137 107 134 152 154 166 186 168 178 184 185 189 193 192 208 209 213 217 222 218 218 221 227 231 240 247 245 258 290 341 42 53 47 45 40
173 168 167 162 155 152 149 158 151 149 149 142 141 143 156 153 157 150 173 175 189 171 185 154 161 148 165 135 158 140 154 149 191 196 208 190 192 196 196 198 210 214 217 219 220 216 207 215 216 214 221 235 239 247 235 354 42 41 49 55 48 30
173 173 167 162 159 152 160 163 159 159 153 157 157 165 166 165 156 162 177 188 171 172 184 124 145 171 110 126 128 168 161 195 202 216 209 207 196 202 202 201 211 218 221 223 220 223 209 188 198 212 223 225 241 249 0 48 78 85 68 56 51 33
172 177 168 165 163 161 161 162 163 164 159 161 165 180 171 175 165 175 170 166 191 176 159 121 142 124 128 137 151 185 195 200 209 214 216 210 203 201 204 207 211 220 228 226 223 225 216 180 189 190 200 221 253 49 12 68 78 62 61 50 46 33
175 177 174 168 168 165 163 166 166 168 164 166 170 165 174 167 169 171 160 183 190 186 156 169 148 146 101 152 182 194 189 197 199 194 196 213 191 173 199 193 203 209 215 227 225 223 331 350 260 140 65 327 293 32 89 71 95 91 74 63 47 37
175 177 181 168 176 160 164 168 167 169 162 178 154 165 173 172 168 177 187 192 195 190 152 137 163 183 167 215 216 188 204 215 235 252 164 234 194 178 195 206 196 190 211 212 174 211 49 345 37 228 269 147 21 354 9 119 89 86 79 67 50 44
176 177 183 171 174 165 173 163 170 164 164 163 157 161 174 178 166 183 194 196 196 183 181 162 163 206 208 198 165 171 191 184 185 185 186 211 83 253 249 73 250 241 302 307 299 139 204 78 358 334 360 4 62 18 359 82 101 100 84 76 64 54
178 178 180 176 171 171 168 165 162 153 165 154 161 165 171 183 165 174 182 189 177 207 182 190 153 167 156 172 145 154 150 180 93 145 80 282 85 327 323 23 353 1 10 26 355 310 59 175 92 354 28 33 30 42 14 47 84 78 91 84 76 67
177 176 179 174 171 173 167 167 158 169 157 154 171 167 170 171 170 176 169 183 179 224 214 148 162 144 141 120 121 117 136 83 57 74 68 317 114 2 106 157 206 145 252 132 302 301 335 83 251 70 24 57 36 40 35 31 86 81 86 91 84 78
177 179 172 180 172 168 166 165 169 167 150 165 167 170 166 167 186 164 157 175 177 191 265 135 156 148 135 124 123 98 103 98 85 99 262 351 24 148 223 167 242 185 277 174 200 106 240 344 77 33 28 73 40 46 40 41 34 93 102 103 104 94
180 174 176 179 174 165 169 172 168 162 155 173 162 177 186 171 175 157 156 160 181 164 181 182 169 171 143 141 102 114 111 123 110 80 63 106 276 75 344 312 351 346 274 43 34 68 20 59 36 88 37 51 54 55 57 52 48 34 54 114 106 103
179 175 181 180 170 168 176 171 165 163 164 165 167 185 184 169 164 153 153 167 167 165 179 169 156 169 147 137 136 125 107 93 107 120 90 95 128 308 11 46 33 84 14 15 37 35 78 31 38 52 70 59 58 68 67 59 60 49 37 43 98 117
176 172 189 179 175 171 172 167 165 163 169 164 177 183 172 175 164 147 157 168 157 156 188 152 172 163 149 150 128 136 119 116 107 104 101 71 62 235 108 140 79 31 36 65 52 38 35 98 82 44 49 65 63 65 67 73 61 58 52 44 33 22
177 174 188 178 174 181 172 164 165 173 165 173 180 176 172 171 153 154 153 154 158 153 188 153 162 143 151 136 127 114 116 112 96 107 117 171 120 52 65 41 330 97 11 266 125 92 203 88 70 77 59 50 50 47 52 62 66 66 57 55 43 39
180 176 182 176 178 179 168 173 169 174 168 178 173 175 169 163 163 167 165 152 162 163 179 168 150 121 162 143 126 118 112 111 100 112 98 77 10 32 57 2 7 348 100 12 43 59 53 55 62 68 62 60 75 77 71 62 58 67 78 70 50 50
176 178 178 175 178 175 174 176 177 169 161 181 172 172 172 167 159 173 162 127 164 179 181 171 148 145 178 148 123 110 88 81 85 61 44 292 121 163 79 37 21 344 310 26 189 106 87 88 84 80 73 75 73 74 74 70 59 49 46 50 55 49
176 179 174 176 177 175 174 177 177 170 163 176 175 170 168 160 164 173 99 74 46 280 236 149 151 142 129 113 107 101 95 97 100 81 65 297 204 343 82 74 44 349 325 269 208 103 89 96 99 89 85 75 69 61 58 60 65 71 63 55 53 59
178 177 175 176 174 172 174 176 168 166 165 173 173 173 159 155 158 103 96 108 155 241 196 132 134 128 118 112 98 106 112 100 81 88 73 277 28 22 36 345 54 1 338 289 149 129 119 118 105 91 80 68 63 67 75 71 67 63 59 58 61 58
180 177 176 171 157 169 165 173 163 164 169 174 172 164 155 155 140 127 167 162 196 173 161 131 122 125 129 121 124 117 110 91 81 240 178 254 179 170 59 6 40 101 312 295 134 114 117 106 97 96 89 82 74 64 64 52 58 58 65 72 69 65
186 174 163 138 172 165 172 178 168 171 174 172 160 151 152 150 133 77 124 151 139 133 126 122 110 104 99 88 95 88 94 208 93 271 19 327 313 40 66 98 87 95 113 108 90 110 121 117 104 97 91 83 74 72 62 65 60 59 78 72 51 53
179 153 166 166 190 152 175 187 172 171 162 160 146 139 137 162 113 158 173 147 143 162 122 125 118 108 107 105 91 79 64 22 308 56 60 60 335 61 83 116 93 82 126 131 130 130 125 134 131 114 104 96 88 76 79 74 68 68 62 49 63 52
166 150 175 169 169 164 184 175 135 116 182 165 154 164 146 127 113 122 127 124 125 131 120 114 111 97 80 74 80 85 54 36 286 62 13 38 78 121 137 139 139 122 138 157 143 147 152 169 163 148 151 132 118 111 96 93 92 82 68 78 76 57
167 161 173 180 178 167 164 149 156 170 176 163 170 145 132 130 122 126 120 118 113 128 127 117 106 88 72 47 42 47 58 68 344 120 160 143 140 113 98 83 155 131 134 124 130 160 171 250 311 168 175 171 158 154 152 121 103 87 73 73 69 73
165 166 167 172 172 149 156 157 152 161 157 157 151 127 129 119 121 130 125 106 101 92 98 110 87 97 76 44 51 53 142 80 90 22 114 132 113 114 101 107 92 85 166 160 167 132 351 309 291 314 203 229 155 189 155 162 136 111 128 117 111 90
158 165 168 167 169 153 142 141 131 109 110 111 121 136 135 137 140 135 121 126 115 98 92 94 98 45 105 108 82 144 84 94 99 77 90 104 102 84 104 93 70 48 14 59 110 105 130 13 19 24 353 298 181 229 80 133 142 135 163 131 116 98
164 154 161 168 165 150 152 147 143 137 138 149 153 161 165 158 154 160 144 129 132 125 114 93 97 82 36 63 115 98 123 123 101 89 69 81 93 92 70 81 68 90 83 63 113 122 108 52 61 33 33 31 359 1 113 144 192 138 156 101 93 68
165 167 163 170 154 157 154 155 155 162 150 151 160 146 139 151 154 139 124 133 110 99 98 85 73 76 83 76 79 86 86 81 85 86 85 91 90 76 68 48 63 81 90 98 105 111 110 114 86 52 55 45 36 34 25 78 266 130 170 163 161 152
171 168 164 162 160 165 165 162 167 174 161 170 165 152 155 137 139 139 125 117 117 101 90 90 88 90 103 99 95 101 103 103 115 111 108 91 79 83 91 75 63 66 50 43 63 82 85 87 87 88 47 55 79 55 45 48 360 344 307 163 167 167
168 172 169 164 161 162 165 172 174 174 166 171 159 149 125 121 117 114 121 119 115 107 99 90 92 109 122 127 135 127 111 107 105 106 103 93 83 77 73 77 79 69 69 67 62 67 97 89 91 95 97 75 58 59 69 49 18 1 352 308 144 175
173 181 173 172 170 163 171 175 174 178 172 168 162 152 158 149 128 130 131 132 126 129 119 114 114 106 104 114 112 105 102 101 93 84 80 86 92 85 80 77 74 78 77 79 63 61 70 75 73 46 40 67 99 113 90 63 36 11 33 9 20 58
176 176 174 174 170 167 180 181 179 175 177 165 160 161 161 163 158 164 161 149 153 146 164 154 149 142 152 138 130 117 112 102 98 99 99 102 97 94 89 85 83 80 77 76 77 81 73 71 70 61 59 56 61 51 48 50 33 34 18 14 330 45
178 178 173 172 172 174 182 183 183 176 173 167 167 170 166 164 166 157 154 154 158 160 163 155 159 154 146 131 114 114 116 116 108 105 102 101 101 99 98 95 87 85 84 79 82 80 81 81 76 80 72 68 67 62 51 50 47 26 14 22 335 343
177 176 175 171 176 178 179 184 180 176 168 168 173 174 169 158 154 150 152 156 156 168 166 168 162 146 138 139 126 129 127 117 112 108 110 111 106 106 103 98 93 93 85 84 74 73 78 70 77 88 83 71 70 64 64 57 43 31 25 5 18 1
173 175 164 167 178 181 186 182 175 169 173 173 177 174 171 165 165 163 163 166 166 170 171 171 164 156 156 151 140 128 121 114 112 115 113 109 113 115 113 110 107 100 96 92 92 91 88 88 84 79 76 78 69 66 63 49 40 40 37 27 31 14
175 172 166 176 178 183 186 180 174 173 175 176 175 166 172 170 169 170 163 165 170 160 166 171 163 148 153 141 129 125 123 122 121 119 119 118 116 114 111 110 104 96 97 93 96 94 92 94 87 81 79 80 78 69 62 53 40 33 41 38 30 15
178 173 173 175 181 181 183 179 176 173 173 173 171 167 168 168 172 168 164 166 163 192 164 148 156 148 142 141 135 131 133 127 128 128 127 127 128 118 116 116 110 111 104 103 106 106 104 94 88 87 84 81 77 70 58 45 48 42 33 30 37 23
181 177 172 177 178 180 177 177 171 168 167 172 172 171 166 166 155 145 165 162 156 186 130 162 139 149 149 140 139 140 133 132 132 133 132 130 123 122 126 124 122 122 120 123 113 106 101 97 96 91 88 85 87 84 64 55 50 45 40 34 34 31